Preview of NWS' New Version of Forecast
This preview is not operational and should not be used for support decisions.

Regional Weather Roundup (RWR)

Issued by National Weather Service (NWS)

                            
000
ASUS45 KABQ 221501
RWRNM 
NEW MEXICO REGIONAL WEATHER ROUNDUP
NATIONAL WEATHER SERVICE ALBUQUERQUE NM
900 AM MDT MON APR 22 2019

NOTE: "FAIR" MEANS FEW OR NO CLOUDS BELOW 12,000 FEET AGL WITH NO
       SIGNIFICANT WEATHER OR OBSTRUCTIONS TO VISION.

      THIS PRODUCT IS RELEASED AS TWO VERSIONS.  ONE VERSION NEAR
      THE TOP OF THE HOUR CONTAINING PRELIMINARY DATA FROM ALBUQUERQUE
      AND OTHER STATIONS.  A FINAL VERSION WITH ADDITIONAL DATA IS 
      ISSUED ABOUT 10 MINUTES AFTER THE HOUR.
 
NMZ501-503-504-510>518-221600-
NORTHWEST PLATEAU/NORTHCENTRAL MOUNTAINS
  
CITY           SKY/WX    TMP DP  RH WIND       PRES   REMARKS
FARMINGTON     FAIR      54  21  27 E8        30.07S                  
LOS ALAMOS       N/A     53  20  27 S6        30.16S                  
SANTA FE       FAIR      59  30  33 SE15      30.12S                  
TAOS           FAIR      57  21  24 VRB5      30.17S                  

$$
NMZ402-403-502-505>509-221600-
WESTCENTRAL MOUNTAINS/SOUTHWEST MOUNTAINS
  
CITY           SKY/WX    TMP DP  RH WIND       PRES   REMARKS
GALLUP         FAIR      40  23  50 NE3       30.12R                  
GRANTS         FAIR      49  23  35 NW8       30.13F                  
SILVER CITY    FAIR      59  27  29 SE3       30.08S                  

$$
NMZ407-409-411-412-221600-
SOUTHERN DESERTS
  
CITY           SKY/WX    TMP DP  RH WIND       PRES   REMARKS
DEMING         FAIR      63  28  26 NW6       30.04R                  
ALAMOGORDO     FAIR      61  41  48 S7        30.02S                  
T OR C         FAIR      61  24  24 N5        30.04S                  

$$
NMZ519>523-221600-
CENTRAL VALLEYS/CENTRAL HIGHLANDS
  
CITY           SKY/WX    TMP DP  RH WIND       PRES   REMARKS
ALBUQUERQUE    FAIR      61  26  26 E17       30.08S                  
DOUBLE EAGLE   MOSUNNY   59  27  29 NE6       30.10S                  
CLINES CORNERS FAIR      50  34  54 E16       30.17F                  
BELEN          FAIR      57  29  34 W3        30.08S                  
SOCORRO        NOT AVBL                                               

$$
NMZ524>526-539-540-221600-
SOUTHCENTRAL MOUNTAINS
  
CITY           SKY/WX    TMP DP  RH WIND       PRES   REMARKS
RUIDOSO        FAIR      50  23  34 NW6       30.16R                  

$$
NMZ527>531-221600-
NORTHEAST HIGHLANDS/NORTHEAST PLAINS
  
CITY           SKY/WX    TMP DP  RH WIND       PRES   REMARKS
LAS VEGAS      FAIR      53  34  48 E8        30.18S                  
RATON          FAIR      52  38  58 N14       30.18R                  
CLAYTON        FAIR      54  39  57 N26       30.16R                  

$$
NMZ532>537-221600-
EASTCENTRAL PLAINS
  
CITY           SKY/WX    TMP DP  RH WIND       PRES   REMARKS
SANTA ROSA     FAIR      54  41  61 NE20G25   30.13R                  
TUCUMCARI      FAIR      57  44  62 NE17      30.12R                  
CANNON AFB     NOT AVBL                                               
CLOVIS AIRPORT FAIR      52  45  77 NE24      30.10R                  

$$
NMZ028-029-538-221600-
SOUTHEAST PLAINS
  
CITY           SKY/WX    TMP DP  RH WIND       PRES   REMARKS
ROSWELL        FAIR      59  41  51 N16       30.04R                  
ARTESIA        FAIR      59  37  44 N22       30.02R                  
CARLSBAD       FAIR      65  53  65 NW3       29.98R                  
HOBBS          SUNNY     63  54  72 NE8       30.01R                  


$$